Regional Weather Roundup
Issued by NWS Grand Forks, ND

Home | Current Version | Previous Version | Graphics & Text | Print | Product List | Glossary On
Versions: 1 2 3 4 5 6 7 8 9 10 11 12 13 14 15 16 17 18 19 20 21 22 23 24 25 26 27 28 29 30 31 32 33 34 35 36 37 38 39 40 41 42 43 44 45 46 47 48 49 50
000
ASUS43 KFGF 271831
RWRFGF
PRAIRIE TO PINES  WEATHER ROUNDUP
NATIONAL WEATHER SERVICE EASTERN NORTH DAKOTA/GRAND FORKS ND
100 PM CDT SAT AUG 27 2016

 **SATELLITE DATA USED TO AUGMENT SKY COVER AT AUTOMATED STATIONS**
 *****  WEATHER ACROSS EASTERN NORTH DAKOTA  *****

CITY           SKY/WX    TMP DP  RH WIND       PRES   REMARKS
GRAND FORKS    PTSUNNY   64  59  83 S10       29.92F
6HR MIN TEMP:  59; 6HR MAX TEMP:  65; 6HR PCP:  0.26;

GRAND FRKS AFB CLOUDY    66  59  77 S9        29.91F
GRAND FRKS NWS   N/A     64 N/A N/A SE7         N/A
DEVILS LAKE    NOT AVBL
FARGO          HVY RAIN  61  57  87 S21G32    29.95R FOG
WAHPETON ARPT  CLOUDY    72  54  53 S14G23    29.95S
$$

 ***** WEATHER ACROSS CENTRAL AND WESTERN NORTH DAKOTA  *****

CITY           SKY/WX    TMP DP  RH WIND       PRES   REMARKS
BISMARCK       SUNNY     73  49  42 VRB3      29.92F
6HR MIN TEMP:  48; 6HR MAX TEMP:  73;

MINOT          SUNNY     73  49  42 VRB3      29.89F
6HR MIN TEMP:  54; 6HR MAX TEMP:  73;

JAMESTOWN      MOSUNNY   72  60  66 S9        29.92S
6HR MIN TEMP:  56; 6HR MAX TEMP:  72;

MINOT AFB      SUNNY     72  45  37 VRB1      29.88S
GARRISON         N/A     72  48  42 VRB5      29.91S
WILLISTON      SUNNY     74  45  35 VRB7      29.87F
6HR MIN TEMP:  44; 6HR MAX TEMP:  74;

DICKINSON      SUNNY     73  41  31 S7        29.90F
6HR MIN TEMP:  49; 6HR MAX TEMP:  73;

HETTINGER      SUNNY     73  50  44 S6        29.94F
6HR MIN TEMP:  41; 6HR MAX TEMP:  73;

$$

 *****  OTHER AIRPORT OBSERVATIONS IN OUR AREA  *****

CITY           SKY/WX    TMP DP  RH WIND       PRES   REMARKS
WALHALLA       FAIR      70  70 100 S8        29.88F
GRAFTON AIRPOR CLOUDY    68  61  77 S14G22    29.92S
VALLEY CITY AR FAIR      72  63  73 SW16      29.93F
CANDO          FAIR      70  57  64 SE8       29.93S
CAVALIER APRT  FAIR      70  59  68 S8        29.89F
GWINNER        FAIR      72  63  73 SW15G23   29.94F
SHEYENNE NWR     N/A     66  63  89 SW3       29.95S
ROLLA            N/A     70  50  49 W12       29.91S
 ***** THE ABOVE OBSERVATIONS ARE NON NWS ARE NOT QUALITY
       CONTROLLED AND MAY MIS-REPORT RAIN FOR SNOW...
$$

  *****  WEATHER ACROSS NORTHERN MINNESOTA  *****

CITY           SKY/WX    TMP DP  RH WIND       PRES   REMARKS
FLAG ISLAND    LGT RAIN  61  59  94 S7        29.95F
WARROAD        LGT RAIN  59  55  88 SE8       29.94F
ROSEAU         CLOUDY    59  54  82 S8        29.96R
HALLOCK        CLOUDY    66  59  77 S15       29.92R
THF RVR FALLS  LGT RAIN  58  55  90 S13       29.96F
6HR MIN TEMP:  57; 6HR MAX TEMP:  60; 6HR PCP:  0.91;

BAUDETTE       RAIN      59  58  96 SW7       30.00R FOG
6HR MIN TEMP:  57; 6HR MAX TEMP:  66; 6HR PCP:  0.64;

WASKISH        CLOUDY    64  57  77 S6        30.00S
CROOKSTON      CLOUDY    57  57 100 SE12      29.95S
STEPHEN NDAWN    N/A     63  57  82 S10         N/A
GREENBUSH NDAW   N/A     61  57  88 S9          N/A
$$
  *****  WEATHER ACROSS CENTRAL AND WEST MINNESOTA  *****

CITY           SKY/WX    TMP DP  RH WIND       PRES   REMARKS
FOSSTON        CLOUDY    55  54  94 NW7       30.01R
BEMIDJI        CLOUDY    64  58  80 SE3       30.00S
PARK RAPIDS    CLOUDY    68  56  65 S12       30.00S
6HR MIN TEMP:  59; 6HR MAX TEMP:  69;

ELBOW LAKE     MOCLDY    70  59  68 S15       29.98F
WADENA         MOSUNNY   70  55  60 S10       29.98F
DETROIT LAKES  CLOUDY    70  55  60 S15       29.97F
MOORHEAD       MOSUNNY   68  61  77 S8        29.94S
FERGUS FALLS   SUNNY     72  57  60 S16       29.98F
MORRIS MN      PTSUNNY   70  57  64 S13       29.99S
STAPLES        PTSUNNY   68  54  60 SE10      29.99F
$$
  *****  WEATHER ELSEWHERE ACROSS MINNESOTA  *****

CITY           SKY/WX    TMP DP  RH WIND       PRES   REMARKS
DULUTH         CLOUDY    63  58  83 E7        30.04F
6HR MIN TEMP:  57; 6HR MAX TEMP:  63; 6HR PCP:  0.03;

INTRNTL FALLS  CLOUDY    68  55  63 S7        30.00F
6HR MIN TEMP:  54; 6HR MAX TEMP:  71;

ELY            PTSUNNY   68  52  56 SE7       30.04F
CLOQUET        CLOUDY    63  57  82 S3        30.05R
WHEATON        MOSUNNY   72  61  68 SE15      29.98F
BRAINERD       CLOUDY    67  56  67 S9        30.02F
6HR MIN TEMP:  59; 6HR MAX TEMP:  70; 6HR PCP:  0.01;

HIBBING        CLOUDY    66  56  70 SE8       30.04F
6HR MIN TEMP:  52; 6HR MAX TEMP:  66; 6HR PCP: TRACE;

ALEXANDRIA     PTSUNNY   70  54  56 S13G20    30.02F
6HR MIN TEMP:  59; 6HR MAX TEMP:  70;

SAINT CLOUD    CLOUDY    65  59  81 SE7       30.01F
6HR MIN TEMP:  58; 6HR MAX TEMP:  66; 6HR PCP:  0.04;

MINNEAPOLIS    CLOUDY    66  61  84 SE14      29.99F
6HR MIN TEMP:  64; 6HR MAX TEMP:  67; 6HR PCP:  0.01;

$$

  *****  WEATHER ACROSS SOUTH DAKOTA  *****

CITY           SKY/WX    TMP DP  RH WIND       PRES   REMARKS
SIOUX FALLS    CLOUDY    69  63  81 SW5       30.00F
6HR MIN TEMP:  61; 6HR MAX TEMP:  69;

BROOKINGS      CLOUDY    66  60  81 SE5       29.99F
WATERTOWN      PTSUNNY   70  59  68 S8        29.98S
6HR MIN TEMP:  61; 6HR MAX TEMP:  70;

HURON          CLOUDY    71  61  70 S9        29.96F
6HR MIN TEMP:  58; 6HR MAX TEMP:  72;

SISSETON         N/A     74  60  61 S13       29.94F
ABERDEEN       MOSUNNY   74  61  63 S13       29.95F
6HR MIN TEMP:  59; 6HR MAX TEMP:  71;

MITCHELL       MOSUNNY   75  62  64 SW9       29.97F
PIERRE         SUNNY     74  53  48 CALM      29.93F
6HR MIN TEMP:  53; 6HR MAX TEMP:  75;

MOBRIDGE       SUNNY     75  57  53 S6        29.91F
RAPID CITY     SUNNY     75  56  51 S13       29.95F
6HR MIN TEMP:  53; 6HR MAX TEMP:  75; 6HR PCP:  0.01;

$$

  *****  SOME WEATHER IN NEARBY STATES *****

CITY           SKY/WX    TMP DP  RH WIND       PRES   REMARKS
GLASGOW MT     MOSUNNY   74  46  36 SE17G25   29.80F
6HR MIN TEMP:  46; 6HR MAX TEMP:  74;

GREAT FALLS MT MOSUNNY   78  34  20 SW22G30   29.79F
6HR MIN TEMP:  59; 6HR MAX TEMP:  79;

CHEYENNE WY    MOSUNNY   75  35  23 W10       30.15S
6HR MIN TEMP:  47; 6HR MAX TEMP:  77;

SCOTTSBLUFF NE SUNNY     77  50  38 VRB5      30.04F
6HR MIN TEMP:  53; 6HR MAX TEMP:  77;

OMAHA NE       MOSUNNY   79  65  62 VRB3      30.01S
6HR MIN TEMP:  67; 6HR MAX TEMP:  79;

DES MOINES IA  CLOUDY    75  67  76 W6        30.02S
6HR MIN TEMP:  64; 6HR MAX TEMP:  75; 6HR PCP: TRACE;

DAVENPORT IA   PTSUNNY   79  69  71 W6G20     30.02S
6HR MIN TEMP:  70; 6HR MAX TEMP:  79;

CHICAGO IL     CLOUDY    78  71  79 S13       30.04F
6HR MIN TEMP:  69; 6HR MAX TEMP:  78; 6HR PCP:  0.21;

EAU CLAIRE WI  CLOUDY    67  58  72 SE10      30.03F
6HR MIN TEMP:  59; 6HR MAX TEMP:  69;

LA CROSSE WI   CLOUDY    69  63  81 NE5       30.02F
6HR MIN TEMP:  64; 6HR MAX TEMP:  69;

$$

  *****  SOME NATIONAL WEATHER *****

CITY           SKY/WX    TMP DP  RH WIND       PRES   REMARKS
LA GUARDIA NY  MOSUNNY   87  60  40 NE10      30.17F
6HR MIN TEMP:  77; 6HR MAX TEMP:  88;

RALEIGH NC     MOSUNNY   97  70  41 E12       30.10F HX 103
6HR MIN TEMP:  78; 6HR MAX TEMP:  98;

ATLANTA GA     PTSUNNY   88  70  55 E12       30.10F HX  93
6HR MIN TEMP:  75; 6HR MAX TEMP:  90;

NEW ORLEANS LA CLOUDY    87  76  69 NE14      29.97F HX  97
6HR MIN TEMP:  81; 6HR MAX TEMP:  87; 6HR PCP: TRACE;

OKLAHOMA CITY  CLOUDY    87  67  51 S8        30.03F HX  90
6HR MIN TEMP:  70; 6HR MAX TEMP:  87;

ALBUQUERQUE NM MOSUNNY   76  50  40 W9        30.20F
6HR MIN TEMP:  59; 6HR MAX TEMP:  77;

SALT LAKE CITY MOSUNNY   81  39  22 S14       30.06F
6HR MIN TEMP:  63; 6HR MAX TEMP:  81;

LOS ANGELES CA CLOUDY    70  56  61 SW6       30.02R
6HR MIN TEMP:  66; 6HR MAX TEMP:  71;

BOISE ID       SUNNY    C1F1C2F2C3F3C4F4C5F5C6F6C7F7C8F8C9F9CaFaCbFbCcFcCd!



USA.gov is the U.S. government's official web portal to all federal, state and local government web resources and services.